MDT,Max TemperatureF,Mean TemperatureF,Min TemperatureF,Max Dew PointF,MeanDew PointF,Min DewpointF,Max Humidity, Mean Humidity, Min Humidity, Max Sea Level PressureIn, Mean Sea Level PressureIn, Min Sea Level PressureIn, Max VisibilityMiles, Mean VisibilityMiles, Min VisibilityMiles, Max Wind SpeedMPH, Mean Wind SpeedMPH, Max Gust SpeedMPH,PrecipitationIn, CloudCover, Events, WindDirDegrees
2013-10-1,66,52,37,37,33,30,85,54,28,29.96,29.92,29.77,10,10,10,22,8,28,0.00,0,,262
2013-10-2,65,55,44,35,33,30,65,46,31,30.03,29.97,29.86,10,10,10,24,12,31,0.00,1,,4
2013-10-3,52,47,42,41,37,33,83,69,50,30.17,30.07,29.99,10,10,8,21,12,26,0.15,8,Rain,37
2013-10-4,42,37,31,38,32,30,100,92,82,30.27,30.19,30.07,10,2,0,38,25,49,0.54,8,Fog-Rain-Snow,7
2013-10-5,40,31,22,30,28,22,100,87,59,30.17,30.10,30.05,10,3,0,30,22,35,0.14,5,Fog-Snow,334
2013-10-6,51,36,20,41,31,17,85,79,65,30.15,30.11,30.04,10,10,10,9,4,9,0.00,0,,298
2013-10-7,55,44,33,38,35,31,92,76,54,30.03,29.89,29.68,10,10,10,8,3,8,0.00,0,,167
2013-10-8,61,47,33,38,35,31,92,66,36,29.94,29.75,29.63,10,10,10,17,8,22,0.00,0,,333
2013-10-9,59,46,32,41,33,28,82,65,39,30.09,30.03,29.93,10,10,10,7,4,8,0.00,0,,24
2013-10-10,58,44,30,46,39,30,93,80,57,29.98,29.80,29.60,10,10,9,12,3,13,0.05,1,Rain,95
2013-10-11,53,47,40,52,44,30,96,89,58,29.85,29.54,29.44,10,7,2,37,24,47,1.17,8,Rain-Thunderstorm,333
2013-10-12,54,40,26,30,27,23,85,60,29,30.28,30.12,29.88,10,10,10,25,12,33,0.00,1,,289
2013-10-13,53,39,24,38,31,21,92,76,46,30.36,30.27,30.11,10,10,9,22,11,28,0.03,3,Rain,88
2013-10-14,45,39,33,43,39,32,100,92,86,30.19,30.03,29.94,10,5,2,28,19,36,1.13,8,Rain-Snow,26
2013-10-15,48,37,26,34,30,25,100,81,49,30.30,30.23,30.14,10,8,2,24,11,31,0.09,4,Rain-Snow,333
2013-10-16,57,41,24,34,29,21,92,69,33,30.14,30.02,29.93,10,10,10,23,8,29,0.01,1,,299
2013-10-17,46,36,25,36,32,23,96,93,75,30.17,30.05,29.99,10,9,5,23,10,28,0.09,7,Rain-Snow,319
2013-10-18,46,37,28,34,30,25,96,78,53,30.14,30.04,29.87,10,10,9,25,12,33,T,8,,290
2013-10-19,60,48,36,37,35,32,85,66,37,29.87,29.79,29.70,10,10,10,23,8,38,0.00,6,,284
2013-10-20,45,34,23,37,31,23,92,77,46,30.09,29.91,29.70,10,10,10,30,13,40,0.01,7,Rain,317
2013-10-21,49,38,26,43,38,25,93,88,82,30.07,29.95,29.86,10,10,7,18,6,26,0.15,7,Rain,306
2013-10-22,49,43,36,40,36,33,92,78,61,30.12,30.06,29.95,10,10,10,25,8,31,T,7,,324
2013-10-23,43,32,20,38,32,18,92,81,70,30.37,30.18,30.02,10,10,10,20,9,25,T,7,,341
2013-10-24,45,32,18,30,24,16,92,78,49,30.42,30.36,30.25,10,9,2,8,4,10,0.00,1,,255
2013-10-25,66,46,25,41,32,24,92,67,39,30.22,30.11,30.00,10,10,10,24,10,29,0.00,0,,286
2013-10-26,56,39,22,31,24,19,89,62,26,30.35,30.19,29.95,10,10,10,10,4,15,0.00,0,,254
2013-10-27,53,40,26,35,30,22,89,70,50,30.33,30.02,29.86,10,10,10,25,13,30,0.00,2,,40
2013-10-28,28,25,22,23,20,17,92,83,69,30.51,30.40,30.28,10,7,1,22,14,26,0.03,8,Snow,71
2013-10-29,29,26,23,28,25,21,100,92,85,30.41,30.18,30.02,10,7,1,16,8,20,0.00,8,,125
2013-10-30,39,32,24,33,28,24,100,92,76,30.08,29.85,29.68,10,5,0,7,5,8,0.00,6,Fog,224
2013-10-31,48,35,22,34,30,20,92,77,56,29.72,29.67,29.62,10,10,10,23,13,29,T,4,Rain,292